Time,TemperatureF,DewpointF,PressureIn,WindDirection,WindDirectionDegrees,WindSpeedMPH,WindSpeedGustMPH,Humidity,HourlyPrecipIn,Conditions,Clouds,dailyrainin,SoftwareType,DateUTC
2013-01-15 00:07:00,35.0,21.7,30.42,SSE,162,0.0,0.0,58,0.00,SCT,,0.00,WeatherDisplay:10.37,2013-01-15 08:07:00,
2013-01-15 00:08:00,35.0,22.1,30.42,SSE,162,0.0,0.0,59,0.00,SCT,,0.00,WeatherDisplay:10.37,2013-01-15 08:08:00,
2013-01-15 06:25:00,50.4,26.3,30.42,North,0,0.0,0.0,39,0.00,CLR,,0.00,WeatherDisplay:10.37,2013-01-15 14:25:00,
2013-01-15 06:30:00,50.5,27.0,30.42,North,0,0.0,0.0,40,0.00,CLR,,0.00,WeatherDisplay:10.37,2013-01-15 14:30:00,
2013-01-15 06:35:00,50.6,26.5,30.43,North,0,0.0,0.0,39,0.00,CLR,,0.00,WeatherDisplay:10.37,2013-01-15 14:35:00,
2013-01-15 06:40:00,50.8,26.1,30.42,North,0,0.0,0.0,38,0.00,CLR,,0.00,WeatherDisplay:10.37,2013-01-15 14:40:00,
2013-01-15 06:50:00,51.0,26.9,30.42,North,0,0.0,0.0,39,0.00,CLR,,0.00,WeatherDisplay:10.37,2013-01-15 14:50:00,
2013-01-15 06:55:00,50.9,26.2,30.42,North,0,0.0,0.0,38,0.00,CLR,,0.00,WeatherDisplay:10.37,2013-01-15 14:55:00,
2013-01-15 06:58:00,31.0,21.7,30.46,NW,304,0.0,0.0,68,0.00,CLR,,0.00,WeatherDisplay:10.37,2013-01-15 14:58:00,
2013-01-15 06:59:00,31.0,21.7,30.46,NW,304,0.0,0.0,68,0.00,CLR,,0.00,WeatherDisplay:10.37,2013-01-15 14:59:00,
2013-01-15 07:00:00,50.9,26.2,30.42,North,0,0.0,0.0,38,0.00,CLR,,0.00,WeatherDisplay:10.37,2013-01-15 15:00:00,
2013-01-15 07:03:00,31.0,21.3,30.46,NW,304,0.0,0.0,67,0.00,SCT,,0.00,WeatherDisplay:10.37,2013-01-15 15:03:00,
2013-01-15 07:04:00,31.0,21.7,30.46,NW,304,0.0,0.0,68,0.00,SCT,,0.00,WeatherDisplay:10.37,2013-01-15 15:04:00,
2013-01-15 07:08:00,31.0,21.7,30.46,NW,304,0.0,0.0,68,0.00,SCT,,0.00,WeatherDisplay:10.37,2013-01-15 15:08:00,
2013-01-15 07:09:00,31.0,21.7,30.46,NW,304,0.0,0.0,68,0.00,SCT,,0.00,WeatherDisplay:10.37,2013-01-15 15:09:00,
2013-01-15 07:10:00,50.7,26.0,30.42,North,0,0.0,0.0,38,0.00,CLR,,0.00,WeatherDisplay:10.37,2013-01-15 15:10:00,
2013-01-15 07:14:00,31.0,21.3,30.46,NW,304,0.0,0.0,67,0.00,SCT,,0.00,WeatherDisplay:10.37,2013-01-15 15:14:00,
2013-01-15 07:15:00,50.7,25.3,30.42,North,0,0.0,0.0,37,0.00,CLR,,0.00,WeatherDisplay:10.37,2013-01-15 15:15:00,
2013-01-15 07:19:00,31.0,21.7,30.47,NW,304,0.0,0.0,68,0.00,SCT,,0.00,WeatherDisplay:10.37,2013-01-15 15:19:00,
2013-01-15 07:20:00,50.7,24.7,30.42,North,0,0.0,0.0,36,0.00,CLR,,0.00,WeatherDisplay:10.37,2013-01-15 15:20:00,
2013-01-15 07:24:00,31.0,21.7,30.47,NW,304,0.0,0.0,68,0.00,SCT,,0.00,WeatherDisplay:10.37,2013-01-15 15:24:00,
2013-01-15 07:25:00,50.6,25.3,30.42,North,0,0.0,0.0,37,0.00,CLR,,0.00,WeatherDisplay:10.37,2013-01-15 15:25:00,
2013-01-15 07:29:00,31.0,21.7,30.47,NW,304,0.0,0.0,68,0.00,SCT,,0.00,WeatherDisplay:10.37,2013-01-15 15:29:00,
2013-01-15 07:30:00,50.5,25.2,30.42,North,0,0.0,0.0,37,0.00,CLR,,0.00,WeatherDisplay:10.37,2013-01-15 15:30:00,
2013-01-15 07:34:00,30.9,21.6,30.47,NW,304,0.0,0.0,68,0.00,SCT,,0.00,WeatherDisplay:10.37,2013-01-15 15:34:00,
2013-01-15 07:35:00,30.9,21.6,30.47,NW,304,0.0,0.0,68,0.00,SCT,,0.00,WeatherDisplay:10.37,2013-01-15 15:35:00,
2013-01-15 07:39:00,30.9,21.6,30.47,NW,304,0.0,0.0,68,0.00,SCT,,0.00,WeatherDisplay:10.37,2013-01-15 15:39:00,
2013-01-15 07:40:00,30.9,21.6,30.47,NW,304,0.0,0.0,68,0.00,SCT,,0.00,WeatherDisplay:10.37,2013-01-15 15:40:00,
2013-01-15 07:44:00,30.9,21.9,30.48,NW,304,0.0,0.0,69,0.00,SCT,,0.00,WeatherDisplay:10.37,2013-01-15 15:44:00,
2013-01-15 07:45:00,30.9,21.6,30.48,NW,304,0.0,0.0,68,0.00,SCT,,0.00,WeatherDisplay:10.37,2013-01-15 15:45:00,
2013-01-15 07:49:00,30.9,21.6,30.48,NW,304,0.0,0.0,68,0.00,SCT,,0.00,WeatherDisplay:10.37,2013-01-15 15:49:00,
2013-01-15 07:50:00,31.0,21.7,30.48,NW,304,0.0,0.0,68,0.00,SCT,,0.00,WeatherDisplay:10.37,2013-01-15 15:50:00,
2013-01-15 07:51:00,31.0,21.7,30.48,NW,304,0.0,0.0,68,0.00,SCT,,0.00,WeatherDisplay:10.37,2013-01-15 15:51:00,
2013-01-15 07:54:00,31.0,22.0,30.48,NW,304,0.0,0.0,69,0.00,SCT,,0.00,WeatherDisplay:10.37,2013-01-15 15:54:00,
2013-01-15 07:55:00,31.0,22.0,30.48,NW,304,0.0,0.0,69,0.00,SCT,,0.00,WeatherDisplay:10.37,2013-01-15 15:55:00,
2013-01-15 07:56:00,31.0,22.0,30.48,NW,304,0.0,0.0,69,0.00,SCT,,0.00,WeatherDisplay:10.37,2013-01-15 15:56:00,
2013-01-15 08:00:00,31.1,22.1,30.48,NW,304,0.0,0.0,69,0.00,SCT,,0.00,WeatherDisplay:10.37,2013-01-15 16:00:00,
2013-01-15 08:01:00,31.2,22.2,30.48,NW,304,0.0,0.0,69,0.00,SCT,,0.00,WeatherDisplay:10.37,2013-01-15 16:01:00,
2013-01-15 08:05:00,31.2,22.2,30.48,NW,304,0.0,0.0,69,0.00,SCT,,0.00,WeatherDisplay:10.37,2013-01-15 16:05:00,
2013-01-15 08:06:00,31.3,22.3,30.48,NW,304,0.0,0.0,69,0.00,SCT,,0.00,WeatherDisplay:10.37,2013-01-15 16:06:00,
2013-01-15 08:10:00,31.4,22.4,30.48,NW,304,0.0,0.0,69,0.00,SCT,,0.00,WeatherDisplay:10.37,2013-01-15 16:10:00,
2013-01-15 08:11:00,31.5,22.5,30.48,NW,304,0.0,0.0,69,0.00,SCT,,0.00,WeatherDisplay:10.37,2013-01-15 16:11:00,
2013-01-15 08:15:00,31.6,22.6,30.49,NW,304,0.0,0.0,69,0.00,SCT,,0.00,WeatherDisplay:10.37,2013-01-15 16:15:00,
2013-01-15 08:16:00,31.7,22.7,30.48,NW,304,0.0,0.0,69,0.00,SCT,,0.00,WeatherDisplay:10.37,2013-01-15 16:16:00,
2013-01-15 08:17:00,31.7,22.7,30.48,NW,304,0.0,0.0,69,0.00,SCT,,0.00,WeatherDisplay:10.37,2013-01-15 16:17:00,
2013-01-15 08:20:00,31.8,22.8,30.49,NW,304,0.0,0.0,69,0.00,SCT,,0.00,WeatherDisplay:10.37,2013-01-15 16:20:00,
2013-01-15 08:21:00,31.8,22.8,30.49,NW,304,0.0,0.0,69,0.00,SCT,,0.00,WeatherDisplay:10.37,2013-01-15 16:21:00,
2013-01-15 08:22:00,31.9,22.9,30.49,NW,304,0.0,0.0,69,0.00,SCT,,0.00,WeatherDisplay:10.37,2013-01-15 16:22:00,
2013-01-15 08:25:00,32.0,22.6,30.49,NW,304,0.0,0.0,68,0.00,SCT,,0.00,WeatherDisplay:10.37,2013-01-15 16:25:00,
2013-01-15 08:26:00,32.0,23.0,30.49,NW,304,0.0,0.0,69,0.00,SCT,,0.00,WeatherDisplay:10.37,2013-01-15 16:26:00,
2013-01-15 08:27:00,32.1,22.7,30.49,NW,304,0.0,0.0,68,0.00,SCT,,0.00,WeatherDisplay:10.37,2013-01-15 16:27:00,
2013-01-15 08:30:00,32.3,22.9,30.49,NW,304,0.0,0.0,68,0.00,SCT,,0.00,WeatherDisplay:10.37,2013-01-15 16:30:00,
2013-01-15 08:31:00,32.3,22.9,30.49,NW,304,0.0,0.0,68,0.00,SCT,,0.00,WeatherDisplay:10.37,2013-01-15 16:31:00,
2013-01-15 08:32:00,32.4,23.4,30.49,NW,304,0.0,0.0,69,0.00,SCT,,0.00,WeatherDisplay:10.37,2013-01-15 16:32:00,
2013-01-15 08:35:00,32.6,23.2,30.49,NW,304,0.0,0.0,68,0.00,SCT,,0.00,WeatherDisplay:10.37,2013-01-15 16:35:00,
2013-01-15 08:36:00,32.7,23.3,30.49,NW,304,0.0,0.0,68,0.00,SCT,,0.00,WeatherDisplay:10.37,2013-01-15 16:36:00,
2013-01-15 08:37:00,32.8,23.7,30.49,NW,304,0.0,0.0,69,0.00,SCT,,0.00,WeatherDisplay:10.37,2013-01-15 16:37:00,
2013-01-15 08:40:00,33.2,23.8,30.49,NW,304,0.0,0.0,68,0.00,SCT,,0.00,WeatherDisplay:10.37,2013-01-15 16:40:00,
2013-01-15 08:41:00,33.2,23.4,30.49,NW,304,0.0,0.0,67,0.00,SCT,,0.00,WeatherDisplay:10.37,2013-01-15 16:41:00,
2013-01-15 08:42:00,33.3,23.5,30.49,NW,304,0.0,0.0,67,0.00,SCT,,0.00,WeatherDisplay:10.37,2013-01-15 16:42:00,
2013-01-15 08:45:00,33.6,23.8,30.49,NW,304,0.0,0.0,67,0.00,SCT,,0.00,WeatherDisplay:10.37,2013-01-15 16:45:00,
2013-01-15 08:46:00,33.6,23.8,30.49,NW,304,0.0,0.0,67,0.00,SCT,,0.00,WeatherDisplay:10.37,2013-01-15 16:46:00,
2013-01-15 08:47:00,33.7,23.9,30.49,NW,304,0.0,0.0,67,0.00,SCT,,0.00,WeatherDisplay:10.37,2013-01-15 16:47:00,
2013-01-15 08:48:00,33.8,24.0,30.49,NW,304,0.0,0.0,67,0.00,SCT,,0.00,WeatherDisplay:10.37,2013-01-15 16:48:00,
2013-01-15 08:50:00,34.0,23.8,30.49,NW,304,0.0,0.0,66,0.00,SCT,,0.00,WeatherDisplay:10.37,2013-01-15 16:50:00,
2013-01-15 08:51:00,34.0,23.8,30.49,NW,304,0.0,0.0,66,0.00,SCT,,0.00,WeatherDisplay:10.37,2013-01-15 16:51:00,
2013-01-15 08:53:00,34.2,24.0,30.50,NW,304,0.0,0.0,66,0.00,SCT,,0.00,WeatherDisplay:10.37,2013-01-15 16:53:00,
2013-01-15 08:55:00,34.4,24.2,30.49,NW,304,0.0,0.0,66,0.00,SCT,,0.00,WeatherDisplay:10.37,2013-01-15 16:55:00,
2013-01-15 08:56:00,34.4,23.8,30.49,NW,304,0.0,0.0,65,0.00,SCT,,0.00,WeatherDisplay:10.37,2013-01-15 16:56:00,
2013-01-15 08:58:00,34.5,23.9,30.49,NW,304,0.0,0.0,65,0.00,SCT,,0.00,WeatherDisplay:10.37,2013-01-15 16:58:00,
2013-01-15 09:00:00,48.4,24.6,30.43,North,0,0.0,0.0,39,0.00,CLR,,0.00,WeatherDisplay:10.37,2013-01-15 17:00:00,
2013-01-15 09:01:00,34.8,24.2,30.50,NW,304,0.0,0.0,65,0.00,SCT,,0.00,WeatherDisplay:10.37,2013-01-15 17:01:00,
2013-01-15 09:03:00,35.1,24.5,30.50,NW,304,0.0,0.0,65,0.00,SCT,,0.00,WeatherDisplay:10.37,2013-01-15 17:03:00,
2013-01-15 09:06:00,35.4,24.0,30.50,NW,304,0.0,0.0,63,0.00,SCT,,0.00,WeatherDisplay:10.37,2013-01-15 17:06:00,
2013-01-15 09:07:00,35.5,24.1,30.49,NW,304,0.0,0.0,63,0.00,SCT,,0.00,WeatherDisplay:10.37,2013-01-15 17:07:00,
2013-01-15 09:08:00,35.5,23.8,30.50,NW,304,0.0,0.0,62,0.00,SCT,,0.00,WeatherDisplay:10.37,2013-01-15 17:08:00,
2013-01-15 09:11:00,35.8,24.4,30.50,NW,304,0.0,0.0,63,0.00,SCT,,0.00,WeatherDisplay:10.37,2013-01-15 17:11:00,
2013-01-15 09:12:00,35.9,24.1,30.50,NW,304,0.0,0.0,62,0.00,SCT,,0.00,WeatherDisplay:10.37,2013-01-15 17:12:00,
2013-01-15 09:13:00,36.0,23.8,30.50,NW,304,0.0,0.0,61,0.00,SCT,,0.00,WeatherDisplay:10.37,2013-01-15 17:13:00,
2013-01-15 09:14:00,36.0,23.8,30.50,NW,304,0.0,0.0,61,0.00,SCT,,0.00,WeatherDisplay:10.37,2013-01-15 17:14:00,
2013-01-15 09:15:00,47.8,24.6,30.43,North,0,0.0,0.0,40,0.00,CLR,,0.00,WeatherDisplay:10.37,2013-01-15 17:15:00,
2013-01-15 09:16:00,36.2,24.0,30.50,NW,304,0.0,0.0,61,0.00,SCT,,0.00,WeatherDisplay:10.37,2013-01-15 17:16:00,
2013-01-15 09:17:00,36.2,24.0,30.50,NW,304,0.0,0.0,61,0.00,SCT,,0.00,WeatherDisplay:10.37,2013-01-15 17:17:00,
2013-01-15 09:18:00,36.4,23.4,30.50,NW,304,0.0,0.0,59,0.00,SCT,,0.00,WeatherDisplay:10.37,2013-01-15 17:18:00,
2013-01-15 09:19:00,36.5,23.5,30.50,NW,304,0.0,0.0,59,0.00,SCT,,0.00,WeatherDisplay:10.37,2013-01-15 17:19:00,
2013-01-15 09:20:00,47.6,24.4,30.43,North,0,0.0,0.0,40,0.00,CLR,,0.00,WeatherDisplay:10.37,2013-01-15 17:20:00,
2013-01-15 09:21:00,36.6,23.6,30.50,NW,304,0.0,0.0,59,0.00,SCT,,0.00,WeatherDisplay:10.37,2013-01-15 17:21:00,
2013-01-15 09:22:00,36.6,23.2,30.50,NW,304,0.0,0.0,58,0.00,SCT,,0.00,WeatherDisplay:10.37,2013-01-15 17:22:00,
2013-01-15 09:23:00,36.8,23.8,30.50,NW,304,0.0,0.0,59,0.00,SCT,,0.00,WeatherDisplay:10.37,2013-01-15 17:23:00,
2013-01-15 09:24:00,36.9,23.1,30.50,NW,304,0.0,0.0,57,0.00,SCT,,0.00,WeatherDisplay:10.37,2013-01-15 17:24:00,
2013-01-15 09:26:00,37.0,23.6,30.50,NW,304,0.0,0.0,58,0.00,SCT,,0.00,WeatherDisplay:10.37,2013-01-15 17:26:00,
2013-01-15 09:27:00,37.0,23.6,30.50,NW,304,0.0,0.0,58,0.00,SCT,,0.00,WeatherDisplay:10.37,2013-01-15 17:27:00,
2013-01-15 09:28:00,37.1,23.3,30.50,NW,304,0.0,0.0,57,0.00,SCT,,0.00,WeatherDisplay:10.37,2013-01-15 17:28:00,
2013-01-15 09:30:00,37.2,22.9,30.50,NW,304,0.0,0.0,56,0.00,SCT,,0.00,WeatherDisplay:10.37,2013-01-15 17:30:00,
2013-01-15 09:31:00,37.4,22.7,30.50,NW,304,0.0,0.0,55,0.00,SCT,,0.00,WeatherDisplay:10.37,2013-01-15 17:31:00,
2013-01-15 09:32:00,37.4,22.7,30.50,NW,304,0.0,0.0,55,0.00,SCT,,0.00,WeatherDisplay:10.37,2013-01-15 17:32:00,
2013-01-15 09:34:00,37.5,22.8,30.50,NW,304,0.0,0.0,55,0.00,SCT,,0.00,WeatherDisplay:10.37,2013-01-15 17:34:00,
2013-01-15 09:35:00,37.6,22.4,30.50,NW,304,0.0,0.0,54,0.00,SCT,,0.00,WeatherDisplay:10.37,2013-01-15 17:35:00,
2013-01-15 09:37:00,37.8,22.6,30.50,NW,304,0.0,0.0,54,0.00,SCT,,0.00,WeatherDisplay:10.37,2013-01-15 17:37:00,
2013-01-15 09:39:00,37.8,22.2,30.50,NW,304,0.0,0.0,53,0.00,SCT,,0.00,WeatherDisplay:10.37,2013-01-15 17:39:00,
2013-01-15 09:40:00,37.9,21.8,30.50,NW,304,0.0,0.0,52,0.00,SCT,,0.00,WeatherDisplay:10.37,2013-01-15 17:40:00,
2013-01-15 09:42:00,38.0,21.9,30.50,NW,304,0.0,0.0,52,0.00,SCT,,0.00,WeatherDisplay:10.37,2013-01-15 17:42:00,
2013-01-15 09:43:00,38.0,22.4,30.50,NW,304,0.0,0.0,53,0.00,SCT,,0.00,WeatherDisplay:10.37,2013-01-15 17:43:00,
2013-01-15 09:44:00,38.1,22.5,30.50,NW,304,0.0,0.0,53,0.00,SCT,,0.00,WeatherDisplay:10.37,2013-01-15 17:44:00,
2013-01-15 09:45:00,38.2,22.6,30.50,NW,304,0.0,0.0,53,0.00,SCT,,0.00,WeatherDisplay:10.37,2013-01-15 17:45:00,
2013-01-15 09:47:00,38.4,23.2,30.49,NW,304,0.0,0.0,54,0.00,SCT,,0.00,WeatherDisplay:10.37,2013-01-15 17:47:00,
2013-01-15 09:48:00,38.5,23.3,30.50,NW,304,0.0,0.0,54,0.00,SCT,,0.00,WeatherDisplay:10.37,2013-01-15 17:48:00,
2013-01-15 09:49:00,38.7,23.0,30.49,NW,304,0.0,0.0,53,0.00,SCT,,0.00,WeatherDisplay:10.37,2013-01-15 17:49:00,
2013-01-15 09:50:00,38.7,23.0,30.49,NW,304,0.0,0.0,53,0.00,SCT,,0.00,WeatherDisplay:10.37,2013-01-15 17:50:00,
2013-01-15 09:52:00,38.9,23.7,30.49,NW,304,0.0,0.0,54,0.00,SCT,,0.00,WeatherDisplay:10.37,2013-01-15 17:52:00,
2013-01-15 09:53:00,39.0,23.7,30.49,NW,304,0.0,0.0,54,0.00,SCT,,0.00,WeatherDisplay:10.37,2013-01-15 17:53:00,
2013-01-15 09:54:00,39.1,23.4,30.49,NW,304,0.0,0.0,53,0.00,SCT,,0.00,WeatherDisplay:10.37,2013-01-15 17:54:00,
2013-01-15 09:55:00,39.2,23.5,30.49,NW,304,0.0,0.0,53,0.00,SCT,,0.00,WeatherDisplay:10.37,2013-01-15 17:55:00,
2013-01-15 09:57:00,39.2,23.5,30.50,NW,304,0.0,0.0,53,0.00,SCT,,0.00,WeatherDisplay:10.37,2013-01-15 17:57:00,
2013-01-15 09:58:00,39.2,23.5,30.49,NW,304,0.0,0.0,53,0.00,SCT,,0.00,WeatherDisplay:10.37,2013-01-15 17:58:00,
2013-01-15 09:59:00,39.3,23.1,30.49,NW,304,0.0,0.0,52,0.00,SCT,,0.00,WeatherDisplay:10.37,2013-01-15 17:59:00,
2013-01-15 10:00:00,39.3,23.1,30.49,NW,304,0.0,0.0,52,0.00,SCT,,0.00,WeatherDisplay:10.37,2013-01-15 18:00:00,
2013-01-15 10:02:00,39.3,23.6,30.50,NW,304,0.0,0.0,53,0.00,SCT,,0.00,WeatherDisplay:10.37,2013-01-15 18:02:00,
2013-01-15 10:03:00,39.3,23.6,30.50,NW,304,0.0,0.0,53,0.00,SCT,,0.00,WeatherDisplay:10.37,2013-01-15 18:03:00,
2013-01-15 10:04:00,39.3,23.6,30.50,NW,304,0.0,0.0,53,0.00,SCT,,0.00,WeatherDisplay:10.37,2013-01-15 18:04:00,
2013-01-15 10:06:00,39.3,23.6,30.49,NW,304,0.0,0.0,53,0.00,SCT,,0.00,WeatherDisplay:10.37,2013-01-15 18:06:00,
2013-01-15 10:07:00,39.4,23.7,30.49,NW,304,0.0,0.0,53,0.00,SCT,,0.00,WeatherDisplay:10.37,2013-01-15 18:07:00,
2013-01-15 10:08:00,39.5,23.8,30.49,NW,304,0.0,0.0,53,0.00,SCT,,0.00,WeatherDisplay:10.37,2013-01-15 18:08:00,
2013-01-15 10:09:00,39.6,23.9,30.49,NW,304,0.0,0.0,53,0.00,SCT,,0.00,WeatherDisplay:10.37,2013-01-15 18:09:00,
2013-01-15 10:11:00,39.7,24.0,30.49,NW,304,0.0,0.0,53,0.00,SCT,,0.00,WeatherDisplay:10.37,2013-01-15 18:11:00,
2013-01-15 10:12:00,39.8,24.0,30.49,NW,304,0.0,0.0,53,0.00,SCT,,0.00,WeatherDisplay:10.37,2013-01-15 18:12:00,
2013-01-15 10:13:00,39.9,24.6,30.49,NW,304,0.0,0.0,54,0.00,SCT,,0.00,WeatherDisplay:10.37,2013-01-15 18:13:00,
2013-01-15 10:14:00,40.1,23.9,30.49,NW,304,0.0,0.0,52,0.00,SCT,,0.00,WeatherDisplay:10.37,2013-01-15 18:14:00,
2013-01-15 10:16:00,40.2,24.4,30.49,WNW,303,0.0,0.0,53,0.00,SCT,,0.00,WeatherDisplay:10.37,2013-01-15 18:16:00,
2013-01-15 10:18:00,40.3,24.1,30.49,NW,304,0.0,0.0,52,0.00,SCT,,0.00,WeatherDisplay:10.37,2013-01-15 18:18:00,
2013-01-15 10:20:00,40.5,23.8,30.49,WNW,303,0.0,0.0,51,0.00,SCT,,0.00,WeatherDisplay:10.37,2013-01-15 18:20:00,
2013-01-15 10:21:00,40.7,24.0,30.49,WNW,303,0.0,0.0,51,0.00,SCT,,0.00,WeatherDisplay:10.37,2013-01-15 18:21:00,
2013-01-15 10:23:00,40.9,24.6,30.49,NW,305,0.0,0.0,52,0.00,SCT,,0.00,WeatherDisplay:10.37,2013-01-15 18:23:00,
2013-01-15 10:24:00,41.0,23.8,30.49,NW,306,0.0,0.0,50,0.00,SCT,,0.00,WeatherDisplay:10.37,2013-01-15 18:24:00,
2013-01-15 10:25:00,41.1,23.9,30.49,NW,306,0.0,0.0,50,0.00,SCT,,0.00,WeatherDisplay:10.37,2013-01-15 18:25:00,
2013-01-15 10:26:00,41.3,24.0,30.49,NW,306,0.0,0.0,50,0.00,SCT,,0.00,WeatherDisplay:10.37,2013-01-15 18:26:00,
2013-01-15 10:28:00,41.3,24.5,30.48,NW,306,0.0,0.0,51,0.00,SCT,,0.00,WeatherDisplay:10.37,2013-01-15 18:28:00,
2013-01-15 10:29:00,41.4,24.1,30.49,NW,306,0.0,0.0,50,0.00,SCT,,0.00,WeatherDisplay:10.37,2013-01-15 18:29:00,
2013-01-15 10:30:00,41.5,24.2,30.49,WNW,303,0.0,0.0,50,0.00,SCT,,0.00,WeatherDisplay:10.37,2013-01-15 18:30:00,
2013-01-15 10:31:00,41.6,24.3,30.49,WNW,303,0.0,0.0,50,0.00,SCT,,0.00,WeatherDisplay:10.37,2013-01-15 18:31:00,
2013-01-15 10:33:00,41.7,23.9,30.49,WNW,303,0.0,0.0,49,0.00,SCT,,0.00,WeatherDisplay:10.37,2013-01-15 18:33:00,
2013-01-15 10:34:00,41.9,23.6,30.49,WNW,303,0.0,0.0,48,0.00,SCT,,0.00,WeatherDisplay:10.37,2013-01-15 18:34:00,
2013-01-15 10:35:00,41.9,23.6,30.49,WNW,303,0.0,0.0,48,0.00,SCT,,0.00,WeatherDisplay:10.37,2013-01-15 18:35:00,
2013-01-15 10:37:00,42.1,24.3,30.49,WNW,303,0.0,0.0,49,0.00,SCT,,0.00,WeatherDisplay:10.37,2013-01-15 18:37:00,
2013-01-15 10:38:00,42.2,23.9,30.49,WNW,303,0.0,0.0,48,0.00,SCT,,0.00,WeatherDisplay:10.37,2013-01-15 18:38:00,
2013-01-15 10:39:00,42.3,24.0,30.48,NW,307,0.0,0.0,48,0.00,SCT,,0.00,WeatherDisplay:10.37,2013-01-15 18:39:00,
2013-01-15 10:40:00,42.4,24.1,30.48,NW,307,0.0,0.0,48,0.00,SCT,,0.00,WeatherDisplay:10.37,2013-01-15 18:40:00,
2013-01-15 10:42:00,42.5,24.7,30.48,NW,307,0.0,0.0,49,0.00,SCT,,0.00,WeatherDisplay:10.37,2013-01-15 18:42:00,
2013-01-15 10:43:00,42.7,24.4,30.48,NW,317,0.0,0.0,48,0.00,SCT,,0.00,WeatherDisplay:10.37,2013-01-15 18:43:00,
2013-01-15 10:44:00,42.9,23.5,30.48,NW,320,0.0,0.0,46,0.00,SCT,,0.00,WeatherDisplay:10.37,2013-01-15 18:44:00,
2013-01-15 10:45:00,43.0,24.1,30.48,NW,320,0.0,0.0,47,0.00,SCT,,0.00,WeatherDisplay:10.37,2013-01-15 18:45:00,
2013-01-15 10:47:00,43.2,22.7,30.48,NW,320,0.0,0.0,44,0.00,SCT,,0.00,WeatherDisplay:10.37,2013-01-15 18:47:00,
2013-01-15 10:48:00,43.2,23.3,30.48,NW,320,0.0,0.0,45,0.00,SCT,,0.00,WeatherDisplay:10.37,2013-01-15 18:48:00,
2013-01-15 10:50:00,43.4,22.9,30.48,WNW,298,0.0,0.0,44,0.00,SCT,,0.00,WeatherDisplay:10.37,2013-01-15 18:50:00,
2013-01-15 10:52:00,43.7,22.6,30.48,WNW,298,0.0,0.0,43,0.00,SCT,,0.00,WeatherDisplay:10.37,2013-01-15 18:52:00,
2013-01-15 10:53:00,43.7,22.1,30.48,WNW,298,0.0,0.0,42,0.00,SCT,,0.00,WeatherDisplay:10.37,2013-01-15 18:53:00,
2013-01-15 10:55:00,43.7,22.7,30.48,NW,312,0.0,0.0,43,0.00,SCT,,0.00,WeatherDisplay:10.37,2013-01-15 18:55:00,
2013-01-15 10:57:00,44.0,22.4,30.48,North,4,0.0,0.0,42,0.00,SCT,,0.00,WeatherDisplay:10.37,2013-01-15 18:57:00,
2013-01-15 10:58:00,44.0,22.4,30.48,North,4,0.0,0.0,42,0.00,SCT,,0.00,WeatherDisplay:10.37,2013-01-15 18:58:00,
2013-01-15 11:00:00,44.2,22.0,30.47,North,3,0.0,0.0,41,0.00,SCT,,0.00,WeatherDisplay:10.37,2013-01-15 19:00:00,
2013-01-15 11:02:00,44.4,22.7,30.48,North,3,0.0,0.0,42,0.00,SCT,,0.00,WeatherDisplay:10.37,2013-01-15 19:02:00,
2013-01-15 11:03:00,44.4,23.3,30.47,North,360,0.0,0.0,43,0.00,SCT,,0.00,WeatherDisplay:10.37,2013-01-15 19:03:00,
2013-01-15 11:05:00,44.5,22.8,30.48,North,356,0.0,0.0,42,0.00,SCT,,0.00,WeatherDisplay:10.37,2013-01-15 19:05:00,
2013-01-15 11:07:00,44.7,22.4,30.48,NNW,340,0.0,0.0,41,0.00,SCT,,0.00,WeatherDisplay:10.37,2013-01-15 19:07:00,
2013-01-15 11:09:00,44.8,22.5,30.47,NW,314,0.0,0.0,41,0.00,SCT,,0.00,WeatherDisplay:10.37,2013-01-15 19:09:00,
2013-01-15 11:10:00,44.8,22.5,30.47,NW,316,0.0,0.0,41,0.00,SCT,,0.00,WeatherDisplay:10.37,2013-01-15 19:10:00,
2013-01-15 11:11:00,44.9,22.6,30.48,NW,319,0.0,0.0,41,0.00,SCT,,0.00,WeatherDisplay:10.37,2013-01-15 19:11:00,
2013-01-15 11:12:00,45.1,22.2,30.47,WNW,298,0.0,0.0,40,0.00,SCT,,0.00,WeatherDisplay:10.37,2013-01-15 19:12:00,
2013-01-15 11:14:00,45.2,22.3,30.47,NW,304,0.0,0.0,40,0.00,SCT,,0.00,WeatherDisplay:10.37,2013-01-15 19:14:00,
2013-01-15 11:15:00,45.2,22.3,30.47,NW,304,0.0,0.0,40,0.00,SCT,,0.00,WeatherDisplay:10.37,2013-01-15 19:15:00,
2013-01-15 11:16:00,45.3,23.0,30.47,West,276,0.0,0.0,41,0.00,SCT,,0.00,WeatherDisplay:10.37,2013-01-15 19:16:00,
2013-01-15 11:17:00,45.4,21.9,30.47,West,277,0.0,0.0,39,0.00,SCT,,0.00,WeatherDisplay:10.37,2013-01-15 19:17:00,
2013-01-15 11:19:00,45.5,21.9,30.47,West,277,0.0,0.0,39,0.00,SCT,,0.00,WeatherDisplay:10.37,2013-01-15 19:19:00,
2013-01-15 11:20:00,45.5,21.9,30.47,West,277,0.0,0.0,39,0.00,SCT,,0.00,WeatherDisplay:10.37,2013-01-15 19:20:00,
2013-01-15 11:21:00,45.6,22.0,30.47,West,277,0.0,0.0,39,0.00,SCT,,0.00,WeatherDisplay:10.37,2013-01-15 19:21:00,
2013-01-15 11:23:00,45.7,22.1,30.47,West,277,0.0,0.0,39,0.00,SCT,,0.00,WeatherDisplay:10.37,2013-01-15 19:23:00,
2013-01-15 11:24:00,45.8,22.2,30.47,West,277,0.0,0.0,39,0.00,SCT,,0.00,WeatherDisplay:10.37,2013-01-15 19:24:00,
2013-01-15 11:25:00,45.8,22.2,30.47,West,277,0.0,0.0,39,0.00,SCT,,0.00,WeatherDisplay:10.37,2013-01-15 19:25:00,
2013-01-15 11:26:00,45.9,21.7,30.47,West,277,0.0,0.0,38,0.00,SCT,,0.00,WeatherDisplay:10.37,2013-01-15 19:26:00,
2013-01-15 11:28:00,45.9,22.3,30.47,West,278,0.0,0.0,39,0.00,SCT,,0.00,WeatherDisplay:10.37,2013-01-15 19:28:00,
2013-01-15 11:30:00,45.9,22.3,30.47,SE,130,0.0,0.0,39,0.00,SCT,,0.00,WeatherDisplay:10.37,2013-01-15 19:30:00,
2013-01-15 11:32:00,46.0,22.4,30.47,SE,127,0.0,0.0,39,0.00,SCT,,0.00,WeatherDisplay:10.37,2013-01-15 19:32:00,
2013-01-15 11:33:00,46.0,21.8,30.47,SE,127,0.0,0.0,38,0.00,SCT,,0.00,WeatherDisplay:10.37,2013-01-15 19:33:00,
2013-01-15 11:35:00,46.1,23.1,30.47,SE,127,0.0,0.0,40,0.00,SCT,,0.00,WeatherDisplay:10.37,2013-01-15 19:35:00,
2013-01-15 11:37:00,46.3,22.0,30.47,West,266,0.0,0.0,38,0.00,SCT,,0.00,WeatherDisplay:10.37,2013-01-15 19:37:00,
2013-01-15 11:38:00,46.3,22.7,30.47,NW,304,0.0,0.0,39,0.00,SCT,,0.00,WeatherDisplay:10.37,2013-01-15 19:38:00,
2013-01-15 11:40:00,46.3,22.7,30.47,NW,304,0.0,0.0,39,0.00,SCT,,0.00,WeatherDisplay:10.37,2013-01-15 19:40:00,
2013-01-15 11:42:00,46.4,22.8,30.47,NW,304,0.0,0.0,39,0.00,SCT,,0.00,WeatherDisplay:10.37,2013-01-15 19:42:00,
2013-01-15 11:44:00,46.4,22.8,30.46,NW,304,0.0,0.0,39,0.00,SCT,,0.00,WeatherDisplay:10.37,2013-01-15 19:44:00,
2013-01-15 11:45:00,46.5,23.4,30.47,NW,304,0.0,0.0,40,0.00,SCT,,0.00,WeatherDisplay:10.37,2013-01-15 19:45:00,
2013-01-15 11:46:00,46.6,22.3,30.47,NW,304,0.0,0.0,38,0.00,SCT,,0.00,WeatherDisplay:10.37,2013-01-15 19:46:00,
2013-01-15 11:47:00,46.6,22.9,30.47,NW,304,0.0,0.0,39,0.00,SCT,,0.00,WeatherDisplay:10.37,2013-01-15 19:47:00,
2013-01-15 11:49:00,46.7,23.0,30.46,WNW,286,0.0,0.0,39,0.00,SCT,,0.00,WeatherDisplay:10.37,2013-01-15 19:49:00,
2013-01-15 11:50:00,46.7,23.0,30.46,WNW,286,0.0,0.0,39,0.00,SCT,,0.00,WeatherDisplay:10.37,2013-01-15 19:50:00,
2013-01-15 11:52:00,46.8,23.1,30.46,WNW,286,0.0,0.0,39,0.00,SCT,,0.00,WeatherDisplay:10.37,2013-01-15 19:52:00,
2013-01-15 11:54:00,46.8,23.1,30.47,WNW,295,0.0,0.0,39,0.00,SCT,,0.00,WeatherDisplay:10.37,2013-01-15 19:54:00,
2013-01-15 11:55:00,46.9,23.8,30.46,WNW,300,0.0,0.0,40,0.00,SCT,,0.00,WeatherDisplay:10.37,2013-01-15 19:55:00,
2013-01-15 11:57:00,46.9,24.4,30.46,WNW,301,0.0,0.0,41,0.00,SCT,,0.00,WeatherDisplay:10.37,2013-01-15 19:57:00,
2013-01-15 11:59:00,47.0,23.3,30.46,NNW,337,0.0,0.0,39,0.00,SCT,,0.00,WeatherDisplay:10.37,2013-01-15 19:59:00,
2013-01-15 12:01:00,47.0,23.9,30.46,WNW,288,0.0,0.0,40,0.00,SCT,,0.00,WeatherDisplay:10.37,2013-01-15 20:01:00,
2013-01-15 12:02:00,47.1,23.4,30.46,WNW,288,0.0,0.0,39,0.00,SCT,,0.00,WeatherDisplay:10.37,2013-01-15 20:02:00,
2013-01-15 12:04:00,47.2,23.5,30.46,WNW,288,0.0,0.0,39,0.00,SCT,,0.00,WeatherDisplay:10.37,2013-01-15 20:04:00,
2013-01-15 12:06:00,47.2,23.5,30.46,WNW,292,0.0,0.0,39,0.00,SCT,,0.00,WeatherDisplay:10.37,2013-01-15 20:06:00,
2013-01-15 12:07:00,47.2,23.5,30.46,WNW,301,0.0,0.0,39,0.00,SCT,,0.00,WeatherDisplay:10.37,2013-01-15 20:07:00,
2013-01-15 12:10:00,47.3,24.2,30.46,WNW,298,0.0,0.0,40,0.00,SCT,,0.00,WeatherDisplay:10.37,2013-01-15 20:10:00,
2013-01-15 12:11:00,47.3,24.8,30.46,WNW,298,0.0,0.0,41,0.00,SCT,,0.00,WeatherDisplay:10.37,2013-01-15 20:11:00,
2013-01-15 12:12:00,47.4,24.9,30.46,WNW,295,0.0,0.0,41,0.00,SCT,,0.00,WeatherDisplay:10.37,2013-01-15 20:12:00,
2013-01-15 12:15:00,47.4,24.9,30.46,WNW,293,0.0,0.0,41,0.00,SCT,,0.00,WeatherDisplay:10.37,2013-01-15 20:15:00,
2013-01-15 12:16:00,47.4,24.9,30.45,WNW,297,0.0,0.0,41,0.00,SCT,,0.00,WeatherDisplay:10.37,2013-01-15 20:16:00,
2013-01-15 12:17:00,47.4,24.9,30.45,NW,315,0.0,0.0,41,0.00,SCT,,0.00,WeatherDisplay:10.37,2013-01-15 20:17:00,
2013-01-15 12:18:00,47.4,24.3,30.45,NW,324,0.0,0.0,40,0.00,SCT,,0.00,WeatherDisplay:10.37,2013-01-15 20:18:00,
2013-01-15 12:20:00,47.4,24.3,30.45,WNW,300,0.0,0.0,40,0.00,SCT,,0.00,WeatherDisplay:10.37,2013-01-15 20:20:00,
2013-01-15 12:22:00,47.4,24.3,30.45,WNW,302,0.0,0.0,40,0.00,SCT,,0.00,WeatherDisplay:10.37,2013-01-15 20:22:00,
2013-01-15 12:23:00,47.4,24.3,30.45,WNW,295,0.0,0.0,40,0.00,SCT,,0.00,WeatherDisplay:10.37,2013-01-15 20:23:00,
2013-01-15 12:25:00,47.4,24.9,30.45,WNW,286,0.0,0.0,41,0.00,SCT,,0.00,WeatherDisplay:10.37,2013-01-15 20:25:00,
2013-01-15 12:27:00,47.4,24.9,30.45,West,266,0.0,0.0,41,0.00,SCT,,0.00,WeatherDisplay:10.37,2013-01-15 20:27:00,
2013-01-15 12:28:00,47.4,25.4,30.45,West,265,0.0,0.0,42,0.00,SCT,,0.00,WeatherDisplay:10.37,2013-01-15 20:28:00,
2013-01-15 12:31:00,47.5,23.7,30.45,WNW,298,0.0,0.0,39,0.00,SCT,,0.00,WeatherDisplay:10.37,2013-01-15 20:31:00,
2013-01-15 12:33:00,47.6,24.4,30.45,WNW,301,0.0,0.0,40,0.00,SCT,,0.00,WeatherDisplay:10.37,2013-01-15 20:33:00,
2013-01-15 12:36:00,47.7,24.5,30.45,WNW,301,0.0,0.0,40,0.00,SCT,,0.00,WeatherDisplay:10.37,2013-01-15 20:36:00,
2013-01-15 12:38:00,47.7,24.5,30.45,WNW,302,0.0,0.0,40,0.00,SCT,,0.00,WeatherDisplay:10.37,2013-01-15 20:38:00,
2013-01-15 12:41:00,47.8,24.6,30.45,WNW,302,0.0,0.0,40,0.00,SCT,,0.00,WeatherDisplay:10.37,2013-01-15 20:41:00,
2013-01-15 12:43:00,47.9,25.3,30.44,WNW,302,0.0,0.0,41,0.00,SCT,,0.00,WeatherDisplay:10.37,2013-01-15 20:43:00,
2013-01-15 12:47:00,48.1,25.5,30.44,NW,304,0.0,0.0,41,0.00,SCT,,0.00,WeatherDisplay:10.37,2013-01-15 20:47:00,
2013-01-15 12:48:00,48.1,25.5,30.44,WNW,297,0.0,0.0,41,0.00,SCT,,0.00,WeatherDisplay:10.37,2013-01-15 20:48:00,
2013-01-15 12:52:00,48.0,26.0,30.44,NW,307,0.0,0.0,42,0.00,SCT,,0.00,WeatherDisplay:10.37,2013-01-15 20:52:00,
2013-01-15 12:53:00,48.0,26.5,30.44,West,272,0.0,0.0,43,0.00,SCT,,0.00,WeatherDisplay:10.37,2013-01-15 20:53:00,
2013-01-15 12:54:00,48.0,26.5,30.44,WNW,288,0.0,0.0,43,0.00,SCT,,0.00,WeatherDisplay:10.37,2013-01-15 20:54:00,
2013-01-15 12:57:00,48.2,26.2,30.44,WNW,293,0.0,0.0,42,0.00,SCT,,0.00,WeatherDisplay:10.37,2013-01-15 20:57:00,
2013-01-15 12:58:00,48.2,26.7,30.44,WNW,289,0.0,0.0,43,0.00,SCT,,0.00,WeatherDisplay:10.37,2013-01-15 20:58:00,
2013-01-15 12:59:00,48.3,26.8,30.44,WNW,283,0.0,0.0,43,0.00,SCT,,0.00,WeatherDisplay:10.37,2013-01-15 20:59:00,
2013-01-15 13:02:00,48.3,26.2,30.44,West,279,0.0,0.0,42,0.00,SCT,,0.00,WeatherDisplay:10.37,2013-01-15 21:02:00,
2013-01-15 13:03:00,48.4,26.3,30.44,WNW,287,0.0,0.0,42,0.00,SCT,,0.00,WeatherDisplay:10.37,2013-01-15 21:03:00,
2013-01-15 13:04:00,48.4,25.8,30.43,WNW,287,0.0,0.0,41,0.00,SCT,,0.00,WeatherDisplay:10.37,2013-01-15 21:04:00,
2013-01-15 13:07:00,48.3,26.2,30.43,WNW,299,0.0,0.0,42,0.00,SCT,,0.00,WeatherDisplay:10.37,2013-01-15 21:07:00,
2013-01-15 13:08:00,48.4,25.8,30.44,WNW,294,0.0,0.0,41,0.00,SCT,,0.00,WeatherDisplay:10.37,2013-01-15 21:08:00,
2013-01-15 13:09:00,48.3,25.7,30.44,WNW,298,0.0,0.0,41,0.00,SCT,,0.00,WeatherDisplay:10.37,2013-01-15 21:09:00,
2013-01-15 13:12:00,48.3,26.2,30.44,WNW,301,0.0,0.0,42,0.00,SCT,,0.00,WeatherDisplay:10.37,2013-01-15 21:12:00,
2013-01-15 13:13:00,48.3,25.7,30.44,WNW,288,0.0,0.0,41,0.00,SCT,,0.00,WeatherDisplay:10.37,2013-01-15 21:13:00,
2013-01-15 13:14:00,48.3,25.7,30.44,WNW,291,0.0,0.0,41,0.00,SCT,,0.00,WeatherDisplay:10.37,2013-01-15 21:14:00,
2013-01-15 13:17:00,48.4,25.8,30.43,WSW,257,0.0,0.0,41,0.00,SCT,,0.00,WeatherDisplay:10.37,2013-01-15 21:17:00,
2013-01-15 13:18:00,48.5,26.4,30.43,WSW,256,0.0,0.0,42,0.00,SCT,,0.00,WeatherDisplay:10.37,2013-01-15 21:18:00,
2013-01-15 13:19:00,48.5,26.4,30.43,West,277,0.0,0.0,42,0.00,SCT,,0.00,WeatherDisplay:10.37,2013-01-15 21:19:00,
2013-01-15 13:22:00,48.6,25.9,30.44,WNW,295,0.0,0.0,41,0.00,SCT,,0.00,WeatherDisplay:10.37,2013-01-15 21:22:00,
2013-01-15 13:23:00,48.6,25.9,30.43,WNW,295,0.0,0.0,41,0.00,SCT,,0.00,WeatherDisplay:10.37,2013-01-15 21:23:00,
2013-01-15 13:24:00,48.6,25.9,30.43,WNW,295,0.0,0.0,41,0.00,SCT,,0.00,WeatherDisplay:10.37,2013-01-15 21:24:00,
2013-01-15 13:27:00,48.7,25.4,30.43,WNW,299,0.0,0.0,40,0.00,SCT,,0.00,WeatherDisplay:10.37,2013-01-15 21:27:00,
2013-01-15 13:29:00,48.8,26.1,30.43,NW,309,0.0,0.0,41,0.00,SCT,,0.00,WeatherDisplay:10.37,2013-01-15 21:29:00,
2013-01-15 13:33:00,48.8,25.5,30.43,NW,308,0.0,0.0,40,0.00,SCT,,0.00,WeatherDisplay:10.37,2013-01-15 21:33:00,
2013-01-15 13:34:00,48.9,25.6,30.43,NW,312,0.0,0.0,40,0.00,SCT,,0.00,WeatherDisplay:10.37,2013-01-15 21:34:00,
2013-01-15 13:35:00,48.9,26.2,30.43,NW,306,0.0,0.0,41,0.00,SCT,,0.00,WeatherDisplay:10.37,2013-01-15 21:35:00,
2013-01-15 13:38:00,48.9,25.6,30.44,NW,306,0.0,0.0,40,0.00,SCT,,0.00,WeatherDisplay:10.37,2013-01-15 21:38:00,
2013-01-15 13:39:00,48.9,25.6,30.43,NW,306,0.0,0.0,40,0.00,SCT,,0.00,WeatherDisplay:10.37,2013-01-15 21:39:00,
2013-01-15 13:40:00,48.9,25.6,30.43,WNW,294,0.0,0.0,40,0.00,SCT,,0.00,WeatherDisplay:10.37,2013-01-15 21:40:00,
2013-01-15 13:43:00,49.1,25.8,30.43,WNW,290,0.0,0.0,40,0.00,SCT,,0.00,WeatherDisplay:10.37,2013-01-15 21:43:00,
2013-01-15 13:44:00,49.1,26.4,30.43,West,276,0.0,0.0,41,0.00,SCT,,0.00,WeatherDisplay:10.37,2013-01-15 21:44:00,
2013-01-15 13:45:00,49.1,27.0,30.43,West,276,0.0,0.0,42,0.00,SCT,,0.00,WeatherDisplay:10.37,2013-01-15 21:45:00,
2013-01-15 13:48:00,49.3,26.6,30.43,WNW,296,0.0,0.0,41,0.00,SCT,,0.00,WeatherDisplay:10.37,2013-01-15 21:48:00,
2013-01-15 13:49:00,49.4,26.1,30.43,WNW,293,0.0,0.0,40,0.00,SCT,,0.00,WeatherDisplay:10.37,2013-01-15 21:49:00,
2013-01-15 13:50:00,49.4,26.7,30.43,WNW,294,0.0,0.0,41,0.00,SCT,,0.00,WeatherDisplay:10.37,2013-01-15 21:50:00,
2013-01-15 13:53:00,49.5,26.7,30.42,WNW,292,0.0,0.0,41,0.00,SCT,,0.00,WeatherDisplay:10.37,2013-01-15 21:53:00,
2013-01-15 13:54:00,49.6,26.8,30.42,West,261,0.0,0.0,41,0.00,SCT,,0.00,WeatherDisplay:10.37,2013-01-15 21:54:00,
2013-01-15 13:55:00,49.6,26.8,30.43,West,260,0.0,0.0,41,0.00,SCT,,0.00,WeatherDisplay:10.37,2013-01-15 21:55:00,
2013-01-15 13:58:00,49.7,26.9,30.42,WSW,256,0.0,0.0,41,0.00,SCT,,0.00,WeatherDisplay:10.37,2013-01-15 21:58:00,
2013-01-15 13:59:00,49.7,26.9,30.42,WNW,290,0.0,0.0,41,0.00,SCT,,0.00,WeatherDisplay:10.37,2013-01-15 21:59:00,
2013-01-15 14:00:00,49.7,26.9,30.42,WNW,290,0.0,0.0,41,0.00,SCT,,0.00,WeatherDisplay:10.37,2013-01-15 22:00:00,
2013-01-15 14:03:00,49.9,27.1,30.42,West,277,0.0,0.0,41,0.00,SCT,,0.00,WeatherDisplay:10.37,2013-01-15 22:03:00,
2013-01-15 14:04:00,49.9,26.5,30.42,West,277,0.0,0.0,40,0.00,SCT,,0.00,WeatherDisplay:10.37,2013-01-15 22:04:00,
2013-01-15 14:05:00,49.9,26.5,30.42,West,277,0.0,0.0,40,0.00,SCT,,0.00,WeatherDisplay:10.37,2013-01-15 22:05:00,
2013-01-15 14:08:00,50.0,26.6,30.42,West,277,0.0,0.0,40,0.00,SCT,,0.00,WeatherDisplay:10.37,2013-01-15 22:08:00,
2013-01-15 14:09:00,50.0,27.2,30.43,West,277,0.0,0.0,41,0.00,SCT,,0.00,WeatherDisplay:10.37,2013-01-15 22:09:00,
2013-01-15 14:10:00,50.1,26.7,30.43,West,277,0.0,0.0,40,0.00,SCT,,0.00,WeatherDisplay:10.37,2013-01-15 22:10:00,
2013-01-15 14:13:00,50.3,27.5,30.42,WNW,296,0.0,0.0,41,0.00,SCT,,0.00,WeatherDisplay:10.37,2013-01-15 22:13:00,
2013-01-15 14:14:00,50.3,26.9,30.42,WNW,296,0.0,0.0,40,0.00,SCT,,0.00,WeatherDisplay:10.37,2013-01-15 22:14:00,
2013-01-15 14:15:00,50.4,27.0,30.42,WNW,296,0.0,0.0,40,0.00,SCT,,0.00,WeatherDisplay:10.37,2013-01-15 22:15:00,
2013-01-15 14:18:00,50.5,26.4,30.42,WNW,298,0.0,0.0,39,0.00,SCT,,0.00,WeatherDisplay:10.37,2013-01-15 22:18:00,
2013-01-15 14:20:00,50.5,26.4,30.42,West,276,0.0,0.0,39,0.00,SCT,,0.00,WeatherDisplay:10.37,2013-01-15 22:20:00,
2013-01-15 14:21:00,50.5,27.0,30.42,West,260,0.0,0.0,40,0.00,SCT,,0.00,WeatherDisplay:10.37,2013-01-15 22:21:00,
2013-01-15 14:23:00,50.5,26.4,30.42,WNW,303,0.0,0.0,39,0.00,SCT,,0.00,WeatherDisplay:10.37,2013-01-15 22:23:00,
2013-01-15 15:12:00,50.7,25.3,30.42,WSW,251,0.0,0.0,37,0.00,CLR,,0.00,WeatherDisplay:10.37,2013-01-15 23:12:00,
2013-01-15 19:08:00,43.0,26.6,30.44,NNW,333,0.0,0.0,52,0.00,CLR,,0.00,WeatherDisplay:10.37,2013-01-16 03:08:00,
2013-01-15 19:13:00,42.7,26.7,30.43,NNW,333,0.0,0.0,53,0.00,SCT,,0.00,WeatherDisplay:10.37,2013-01-16 03:13:00,
2013-01-15 19:18:00,42.5,26.6,30.44,NNW,333,0.0,0.0,53,0.00,SCT,,0.00,WeatherDisplay:10.37,2013-01-16 03:18:00,
2013-01-15 19:23:00,42.2,26.3,30.43,NNW,333,0.0,0.0,53,0.00,SCT,,0.00,WeatherDisplay:10.37,2013-01-16 03:23:00,
2013-01-15 19:28:00,42.1,26.6,30.44,NNW,333,0.0,0.0,54,0.00,SCT,,0.00,WeatherDisplay:10.37,2013-01-16 03:28:00,
2013-01-15 19:33:00,41.9,26.4,30.44,NNW,333,0.0,0.0,54,0.00,SCT,,0.00,WeatherDisplay:10.37,2013-01-16 03:33:00,
2013-01-15 19:34:00,41.9,26.4,30.44,NNW,333,0.0,0.0,54,0.00,SCT,,0.00,WeatherDisplay:10.37,2013-01-16 03:34:00,
2013-01-15 19:38:00,41.7,26.7,30.45,NNW,333,0.0,0.0,55,0.00,SCT,,0.00,WeatherDisplay:10.37,2013-01-16 03:38:00,
2013-01-15 19:39:00,41.7,26.7,30.44,NNW,333,0.0,0.0,55,0.00,SCT,,0.00,WeatherDisplay:10.37,2013-01-16 03:39:00,
2013-01-15 19:43:00,41.5,26.5,30.45,NNW,333,0.0,0.0,55,0.00,SCT,,0.00,WeatherDisplay:10.37,2013-01-16 03:43:00,
2013-01-15 19:44:00,41.5,26.5,30.44,NNW,333,0.0,0.0,55,0.00,SCT,,0.00,WeatherDisplay:10.37,2013-01-16 03:44:00,
2013-01-15 19:48:00,41.2,26.2,30.44,NNW,333,0.0,0.0,55,0.00,SCT,,0.00,WeatherDisplay:10.37,2013-01-16 03:48:00,
2013-01-15 19:49:00,41.2,26.2,30.44,NNW,333,0.0,0.0,55,0.00,SCT,,0.00,WeatherDisplay:10.37,2013-01-16 03:49:00,
2013-01-15 19:54:00,41.1,26.6,30.44,NNW,333,0.0,0.0,56,0.00,SCT,,0.00,WeatherDisplay:10.37,2013-01-16 03:54:00,
2013-01-15 19:59:00,41.0,26.5,30.45,NNW,333,0.0,0.0,56,0.00,SCT,,0.00,WeatherDisplay:10.37,2013-01-16 03:59:00,
2013-01-15 20:04:00,40.9,26.4,30.44,NNW,333,0.0,0.0,56,0.00,SCT,,0.00,WeatherDisplay:10.37,2013-01-16 04:04:00,
2013-01-15 20:09:00,40.7,26.2,30.44,NNW,333,0.0,0.0,56,0.00,SCT,,0.00,WeatherDisplay:10.37,2013-01-16 04:09:00,
2013-01-15 20:10:00,40.6,26.5,30.44,NNW,333,0.0,0.0,57,0.00,SCT,,0.00,WeatherDisplay:10.37,2013-01-16 04:10:00,
2013-01-15 20:14:00,40.5,26.4,30.44,NNW,333,0.0,0.0,57,0.00,SCT,,0.00,WeatherDisplay:10.37,2013-01-16 04:14:00,
2013-01-15 20:15:00,40.4,26.4,30.44,NNW,334,0.0,0.0,57,0.00,SCT,,0.00,WeatherDisplay:10.37,2013-01-16 04:15:00,
2013-01-15 20:19:00,40.3,26.3,30.44,NNW,333,0.0,0.0,57,0.00,SCT,,0.00,WeatherDisplay:10.37,2013-01-16 04:19:00,
2013-01-15 20:20:00,40.3,26.3,30.44,NNW,334,0.0,0.0,57,0.00,SCT,,0.00,WeatherDisplay:10.37,2013-01-16 04:20:00,
2013-01-15 20:24:00,40.2,26.6,30.44,NNW,333,0.0,0.0,58,0.00,SCT,,0.00,WeatherDisplay:10.37,2013-01-16 04:24:00,
2013-01-15 20:25:00,40.2,26.6,30.44,NNW,333,0.0,0.0,58,0.00,SCT,,0.00,WeatherDisplay:10.37,2013-01-16 04:25:00,
2013-01-15 20:29:00,40.0,26.4,30.44,NNW,333,0.0,0.0,58,0.00,SCT,,0.00,WeatherDisplay:10.37,2013-01-16 04:29:00,
2013-01-15 20:30:00,40.0,26.4,30.44,NNW,333,0.0,0.0,58,0.00,SCT,,0.00,WeatherDisplay:10.37,2013-01-16 04:30:00,
2013-01-15 20:34:00,39.8,26.2,30.44,NNW,333,0.0,0.0,58,0.00,SCT,,0.00,WeatherDisplay:10.37,2013-01-16 04:34:00,
2013-01-15 20:35:00,39.8,26.2,30.44,NNW,333,0.0,0.0,58,0.00,SCT,,0.00,WeatherDisplay:10.37,2013-01-16 04:35:00,
2013-01-15 20:39:00,39.7,26.5,30.44,NNW,333,0.0,0.0,59,0.00,SCT,,0.00,WeatherDisplay:10.37,2013-01-16 04:39:00,
2013-01-15 20:40:00,39.7,26.5,30.44,NNW,333,0.0,0.0,59,0.00,SCT,,0.00,WeatherDisplay:10.37,2013-01-16 04:40:00,
2013-01-15 20:45:00,39.5,26.3,30.44,NNW,333,0.0,0.0,59,0.00,SCT,,0.00,WeatherDisplay:10.37,2013-01-16 04:45:00,
2013-01-15 20:50:00,39.3,26.2,30.44,NNW,333,0.0,0.0,59,0.00,SCT,,0.00,WeatherDisplay:10.37,2013-01-16 04:50:00,
2013-01-15 20:55:00,39.2,26.1,30.44,NNW,333,0.0,0.0,59,0.00,SCT,,0.00,WeatherDisplay:10.37,2013-01-16 04:55:00,
2013-01-15 20:56:00,39.2,26.1,30.44,NNW,333,0.0,0.0,59,0.00,SCT,,0.00,WeatherDisplay:10.37,2013-01-16 04:56:00,
2013-01-15 21:00:00,39.1,26.4,30.44,NNW,333,0.0,0.0,60,0.00,SCT,,0.00,WeatherDisplay:10.37,2013-01-16 05:00:00,
2013-01-15 21:01:00,39.1,26.4,30.44,NNW,333,0.0,0.0,60,0.00,SCT,,0.00,WeatherDisplay:10.37,2013-01-16 05:01:00,
2013-01-15 21:03:00,39.0,26.3,30.44,NNW,333,0.0,0.0,60,0.00,SCT,,0.00,WeatherDisplay:10.37,2013-01-16 05:03:00,
2013-01-15 21:05:00,39.0,26.3,30.44,NNW,333,0.0,0.0,60,0.00,SCT,,0.00,WeatherDisplay:10.37,2013-01-16 05:05:00,
2013-01-15 21:06:00,38.9,26.2,30.44,NNW,333,0.0,0.0,60,0.00,SCT,,0.00,WeatherDisplay:10.37,2013-01-16 05:06:00,
2013-01-15 21:08:00,38.9,26.2,30.44,NNW,333,0.0,0.0,60,0.00,SCT,,0.00,WeatherDisplay:10.37,2013-01-16 05:08:00,
2013-01-15 21:10:00,38.8,26.1,30.44,NNW,333,0.0,0.0,60,0.00,SCT,,0.00,WeatherDisplay:10.37,2013-01-16 05:10:00,
2013-01-15 21:11:00,38.8,26.1,30.44,NNW,333,0.0,0.0,60,0.00,SCT,,0.00,WeatherDisplay:10.37,2013-01-16 05:11:00,
2013-01-15 21:13:00,38.7,26.0,30.44,NNW,333,0.0,0.0,60,0.00,SCT,,0.00,WeatherDisplay:10.37,2013-01-16 05:13:00,
2013-01-15 21:15:00,38.7,26.0,30.44,NNW,333,0.0,0.0,60,0.00,SCT,,0.00,WeatherDisplay:10.37,2013-01-16 05:15:00,
2013-01-15 21:16:00,38.7,26.0,30.44,NNW,333,0.0,0.0,60,0.00,SCT,,0.00,WeatherDisplay:10.37,2013-01-16 05:16:00,
2013-01-15 21:18:00,38.7,26.0,30.43,NNW,333,0.0,0.0,60,0.00,SCT,,0.00,WeatherDisplay:10.37,2013-01-16 05:18:00,
2013-01-15 21:20:00,38.7,26.0,30.44,NNW,333,0.0,0.0,60,0.00,SCT,,0.00,WeatherDisplay:10.37,2013-01-16 05:20:00,
2013-01-15 21:22:00,38.6,25.9,30.43,NNW,333,0.0,0.0,60,0.00,SCT,,0.00,WeatherDisplay:10.37,2013-01-16 05:22:00,
2013-01-15 21:23:00,38.5,25.8,30.43,NNW,333,0.0,0.0,60,0.00,SCT,,0.00,WeatherDisplay:10.37,2013-01-16 05:23:00,
2013-01-15 21:25:00,38.5,25.8,30.43,NNW,333,0.0,0.0,60,0.00,SCT,,0.00,WeatherDisplay:10.37,2013-01-16 05:25:00,
2013-01-15 21:26:00,38.5,25.8,30.43,NNW,333,0.0,0.0,60,0.00,SCT,,0.00,WeatherDisplay:10.37,2013-01-16 05:26:00,
2013-01-15 21:27:00,38.5,25.8,30.43,NNW,333,0.0,0.0,60,0.00,SCT,,0.00,WeatherDisplay:10.37,2013-01-16 05:27:00,
2013-01-15 21:28:00,38.5,26.2,30.43,NNW,333,0.0,0.0,61,0.00,SCT,,0.00,WeatherDisplay:10.37,2013-01-16 05:28:00,
2013-01-15 21:30:00,38.4,26.1,30.43,NNW,333,0.0,0.0,61,0.00,SCT,,0.00,WeatherDisplay:10.37,2013-01-16 05:30:00,
2013-01-15 21:31:00,38.4,26.1,30.44,NNW,333,0.0,0.0,61,0.00,SCT,,0.00,WeatherDisplay:10.37,2013-01-16 05:31:00,
2013-01-15 21:32:00,38.4,26.1,30.43,NNW,333,0.0,0.0,61,0.00,SCT,,0.00,WeatherDisplay:10.37,2013-01-16 05:32:00,
2013-01-15 21:34:00,38.3,26.0,30.44,NNW,333,0.0,0.0,61,0.00,SCT,,0.00,WeatherDisplay:10.37,2013-01-16 05:34:00,
2013-01-15 21:35:00,38.3,26.0,30.44,NNW,333,0.0,0.0,61,0.00,SCT,,0.00,WeatherDisplay:10.37,2013-01-16 05:35:00,
2013-01-15 21:36:00,38.3,26.0,30.44,NNW,333,0.0,0.0,61,0.00,SCT,,0.00,WeatherDisplay:10.37,2013-01-16 05:36:00,
2013-01-15 21:37:00,38.3,26.0,30.44,NNW,333,0.0,0.0,61,0.00,SCT,,0.00,WeatherDisplay:10.37,2013-01-16 05:37:00,
2013-01-15 21:39:00,38.3,26.0,30.43,NNW,333,0.0,0.0,61,0.00,SCT,,0.00,WeatherDisplay:10.37,2013-01-16 05:39:00,
2013-01-15 21:41:00,38.2,25.9,30.43,NNW,333,0.0,0.0,61,0.00,SCT,,0.00,WeatherDisplay:10.37,2013-01-16 05:41:00,
2013-01-15 21:42:00,38.2,25.9,30.44,NNW,333,0.0,0.0,61,0.00,SCT,,0.00,WeatherDisplay:10.37,2013-01-16 05:42:00,
2013-01-15 21:44:00,38.2,25.9,30.44,NNW,333,0.0,0.0,61,0.00,SCT,,0.00,WeatherDisplay:10.37,2013-01-16 05:44:00,
2013-01-15 21:46:00,38.1,25.8,30.44,NNW,333,0.0,0.0,61,0.00,SCT,,0.00,WeatherDisplay:10.37,2013-01-16 05:46:00,
2013-01-15 21:47:00,38.1,25.8,30.44,NNW,333,0.0,0.0,61,0.00,SCT,,0.00,WeatherDisplay:10.37,2013-01-16 05:47:00,
2013-01-15 21:49:00,38.0,25.7,30.44,NNW,333,0.0,0.0,61,0.00,SCT,,0.00,WeatherDisplay:10.37,2013-01-16 05:49:00,
2013-01-15 21:51:00,37.9,25.6,30.43,NNW,333,0.0,0.0,61,0.00,SCT,,0.00,WeatherDisplay:10.37,2013-01-16 05:51:00,
2013-01-15 21:52:00,37.9,25.6,30.43,NNW,333,0.0,0.0,61,0.00,SCT,,0.00,WeatherDisplay:10.37,2013-01-16 05:52:00,
2013-01-15 21:54:00,37.8,25.5,30.43,NNW,333,0.0,0.0,61,0.00,SCT,,0.00,WeatherDisplay:10.37,2013-01-16 05:54:00,
2013-01-15 21:56:00,37.7,25.5,30.43,NNW,333,0.0,0.0,61,0.00,SCT,,0.00,WeatherDisplay:10.37,2013-01-16 05:56:00,
2013-01-15 21:57:00,37.7,25.8,30.43,NNW,333,0.0,0.0,62,0.00,SCT,,0.00,WeatherDisplay:10.37,2013-01-16 05:57:00,
2013-01-15 21:59:00,37.7,25.8,30.43,NNW,333,0.0,0.0,62,0.00,SCT,,0.00,WeatherDisplay:10.37,2013-01-16 05:59:00,
2013-01-15 22:01:00,37.7,25.5,30.43,NNW,333,0.0,0.0,61,0.00,SCT,,0.00,WeatherDisplay:10.37,2013-01-16 06:01:00,
2013-01-15 22:02:00,37.7,25.8,30.43,NNW,333,0.0,0.0,62,0.00,SCT,,0.00,WeatherDisplay:10.37,2013-01-16 06:02:00,
2013-01-15 22:04:00,37.6,25.7,30.43,NNW,333,0.0,0.0,62,0.00,SCT,,0.00,WeatherDisplay:10.37,2013-01-16 06:04:00,
2013-01-15 22:06:00,37.6,25.7,30.44,NNW,333,0.0,0.0,62,0.00,SCT,,0.00,WeatherDisplay:10.37,2013-01-16 06:06:00,
2013-01-15 22:07:00,37.6,25.7,30.43,NNW,333,0.0,0.0,62,0.00,SCT,,0.00,WeatherDisplay:10.37,2013-01-16 06:07:00,
2013-01-15 22:08:00,37.6,25.7,30.43,NNW,333,0.0,0.0,62,0.00,SCT,,0.00,WeatherDisplay:10.37,2013-01-16 06:08:00,
2013-01-15 22:09:00,37.5,26.0,30.44,NNW,333,0.0,0.0,63,0.00,SCT,,0.00,WeatherDisplay:10.37,2013-01-16 06:09:00,
2013-01-15 22:12:00,37.5,25.7,30.44,NNW,333,0.0,0.0,62,0.00,SCT,,0.00,WeatherDisplay:10.37,2013-01-16 06:12:00,
2013-01-15 22:13:00,37.5,25.7,30.44,NNW,333,0.0,0.0,62,0.00,SCT,,0.00,WeatherDisplay:10.37,2013-01-16 06:13:00,
2013-01-15 22:14:00,37.4,25.9,30.43,NNW,333,0.0,0.0,63,0.00,SCT,,0.00,WeatherDisplay:10.37,2013-01-16 06:14:00,
2013-01-15 22:17:00,37.3,25.8,30.44,NNW,333,0.0,0.0,63,0.00,SCT,,0.00,WeatherDisplay:10.37,2013-01-16 06:17:00,
2013-01-15 22:18:00,37.3,25.8,30.44,NNW,333,0.0,0.0,63,0.00,SCT,,0.00,WeatherDisplay:10.37,2013-01-16 06:18:00,
2013-01-15 22:19:00,37.3,25.8,30.44,NNW,333,0.0,0.0,63,0.00,SCT,,0.00,WeatherDisplay:10.37,2013-01-16 06:19:00,
2013-01-15 22:22:00,37.1,25.7,30.44,NNW,333,0.0,0.0,63,0.00,SCT,,0.00,WeatherDisplay:10.37,2013-01-16 06:22:00,
2013-01-15 22:23:00,37.1,25.7,30.44,NNW,333,0.0,0.0,63,0.00,SCT,,0.00,WeatherDisplay:10.37,2013-01-16 06:23:00,
2013-01-15 22:24:00,37.1,25.7,30.44,NNW,333,0.0,0.0,63,0.00,SCT,,0.00,WeatherDisplay:10.37,2013-01-16 06:24:00,
2013-01-15 22:28:00,37.0,25.6,30.44,NNW,333,0.0,0.0,63,0.00,SCT,,0.00,WeatherDisplay:10.37,2013-01-16 06:28:00,
2013-01-15 22:29:00,37.0,25.6,30.44,NNW,333,0.0,0.0,63,0.00,SCT,,0.00,WeatherDisplay:10.37,2013-01-16 06:29:00,
2013-01-15 22:33:00,36.9,25.5,30.44,NNW,333,0.0,0.0,63,0.00,SCT,,0.00,WeatherDisplay:10.37,2013-01-16 06:33:00,
2013-01-15 22:35:00,36.9,25.5,30.44,NNW,333,0.0,0.0,63,0.00,SCT,,0.00,WeatherDisplay:10.37,2013-01-16 06:35:00,
2013-01-15 22:38:00,36.9,25.5,30.44,NNW,333,0.0,0.0,63,0.00,SCT,,0.00,WeatherDisplay:10.37,2013-01-16 06:38:00,
2013-01-15 22:40:00,36.9,25.5,30.44,NNW,333,0.0,0.0,63,0.00,SCT,,0.00,WeatherDisplay:10.37,2013-01-16 06:40:00,
2013-01-15 22:43:00,36.8,25.4,30.44,NNW,333,0.0,0.0,63,0.00,SCT,,0.00,WeatherDisplay:10.37,2013-01-16 06:43:00,
2013-01-15 22:44:00,36.8,25.4,30.44,NNW,333,0.0,0.0,63,0.00,SCT,,0.00,WeatherDisplay:10.37,2013-01-16 06:44:00,
2013-01-15 22:45:00,36.8,25.4,30.44,NNW,333,0.0,0.0,63,0.00,SCT,,0.00,WeatherDisplay:10.37,2013-01-16 06:45:00,
2013-01-15 22:49:00,36.7,25.7,30.44,NNW,333,0.0,0.0,64,0.00,SCT,,0.00,WeatherDisplay:10.37,2013-01-16 06:49:00,
2013-01-15 22:50:00,36.7,25.7,30.44,NNW,333,0.0,0.0,64,0.00,SCT,,0.00,WeatherDisplay:10.37,2013-01-16 06:50:00,
2013-01-15 22:54:00,36.6,25.2,30.44,NNW,333,0.0,0.0,63,0.00,SCT,,0.00,WeatherDisplay:10.37,2013-01-16 06:54:00,
2013-01-15 22:55:00,36.6,25.6,30.44,NNW,333,0.0,0.0,64,0.00,SCT,,0.00,WeatherDisplay:10.37,2013-01-16 06:55:00,
2013-01-15 22:59:00,36.5,25.5,30.44,NNW,333,0.0,0.0,64,0.00,SCT,,0.00,WeatherDisplay:10.37,2013-01-16 06:59:00,
2013-01-15 23:00:00,36.5,25.5,30.44,NNW,333,0.0,0.0,64,0.00,SCT,,0.00,WeatherDisplay:10.37,2013-01-16 07:00:00,
2013-01-15 23:04:00,36.4,25.4,30.44,NNW,333,0.0,0.0,64,0.00,SCT,,0.00,WeatherDisplay:10.37,2013-01-16 07:04:00,
2013-01-15 23:05:00,36.3,25.3,30.44,NNW,333,0.0,0.0,64,0.00,SCT,,0.00,WeatherDisplay:10.37,2013-01-16 07:05:00,
2013-01-15 23:09:00,36.2,25.2,30.44,NNW,333,0.0,0.0,64,0.00,SCT,,0.00,WeatherDisplay:10.37,2013-01-16 07:09:00,
2013-01-15 23:10:00,36.2,25.2,30.44,NNW,333,0.0,0.0,64,0.00,SCT,,0.00,WeatherDisplay:10.37,2013-01-16 07:10:00,
2013-01-15 23:14:00,36.1,25.1,30.44,NNW,333,0.0,0.0,64,0.00,SCT,,0.00,WeatherDisplay:10.37,2013-01-16 07:14:00,
2013-01-15 23:15:00,36.1,25.1,30.44,NNW,333,0.0,0.0,64,0.00,SCT,,0.00,WeatherDisplay:10.37,2013-01-16 07:15:00,
2013-01-15 23:16:00,36.1,25.5,30.44,NNW,333,0.0,0.0,65,0.00,SCT,,0.00,WeatherDisplay:10.37,2013-01-16 07:16:00,
2013-01-15 23:19:00,36.0,25.4,30.44,NNW,333,0.0,0.0,65,0.00,SCT,,0.00,WeatherDisplay:10.37,2013-01-16 07:19:00,
2013-01-15 23:20:00,36.0,25.4,30.44,NNW,333,0.0,0.0,65,0.00,SCT,,0.00,WeatherDisplay:10.37,2013-01-16 07:20:00,
2013-01-15 23:21:00,36.0,25.4,30.44,NNW,333,0.0,0.0,65,0.00,SCT,,0.00,WeatherDisplay:10.37,2013-01-16 07:21:00,
2013-01-15 23:24:00,36.0,25.4,30.44,NNW,333,0.0,0.0,65,0.00,SCT,,0.00,WeatherDisplay:10.37,2013-01-16 07:24:00,
2013-01-15 23:25:00,36.0,25.4,30.44,NNW,333,0.0,0.0,65,0.00,SCT,,0.00,WeatherDisplay:10.37,2013-01-16 07:25:00,
2013-01-15 23:26:00,35.9,25.3,30.44,NNW,333,0.0,0.0,65,0.00,SCT,,0.00,WeatherDisplay:10.37,2013-01-16 07:26:00,
2013-01-15 23:29:00,35.9,25.3,30.44,NNW,333,0.0,0.0,65,0.00,SCT,,0.00,WeatherDisplay:10.37,2013-01-16 07:29:00,
2013-01-15 23:30:00,35.9,25.3,30.44,NNW,333,0.0,0.0,65,0.00,SCT,,0.00,WeatherDisplay:10.37,2013-01-16 07:30:00,
2013-01-15 23:31:00,35.9,25.3,30.44,NNW,333,0.0,0.0,65,0.00,SCT,,0.00,WeatherDisplay:10.37,2013-01-16 07:31:00,
2013-01-15 23:34:00,35.7,25.1,30.44,NNW,333,0.0,0.0,65,0.00,SCT,,0.00,WeatherDisplay:10.37,2013-01-16 07:34:00,
2013-01-15 23:35:00,35.7,25.1,30.44,NNW,333,0.0,0.0,65,0.00,SCT,,0.00,WeatherDisplay:10.37,2013-01-16 07:35:00,
2013-01-15 23:36:00,35.7,25.1,30.44,NNW,333,0.0,0.0,65,0.00,SCT,,0.00,WeatherDisplay:10.37,2013-01-16 07:36:00,
2013-01-15 23:39:00,35.7,25.1,30.44,NNW,333,0.0,0.0,65,0.00,SCT,,0.00,WeatherDisplay:10.37,2013-01-16 07:39:00,
2013-01-15 23:40:00,35.7,25.1,30.44,NNW,333,0.0,0.0,65,0.00,SCT,,0.00,WeatherDisplay:10.37,2013-01-16 07:40:00,
2013-01-15 23:41:00,35.7,25.1,30.44,NNW,333,0.0,0.0,65,0.00,SCT,,0.00,WeatherDisplay:10.37,2013-01-16 07:41:00,
2013-01-15 23:44:00,35.6,25.0,30.44,NNW,333,0.0,0.0,65,0.00,SCT,,0.00,WeatherDisplay:10.37,2013-01-16 07:44:00,
2013-01-15 23:45:00,35.6,25.0,30.44,NNW,333,0.0,0.0,65,0.00,SCT,,0.00,WeatherDisplay:10.37,2013-01-16 07:45:00,
2013-01-15 23:46:00,35.6,25.0,30.44,NNW,333,0.0,0.0,65,0.00,SCT,,0.00,WeatherDisplay:10.37,2013-01-16 07:46:00,
2013-01-15 23:49:00,35.6,25.0,30.45,NNW,333,0.0,0.0,65,0.00,SCT,,0.00,WeatherDisplay:10.37,2013-01-16 07:49:00,
2013-01-15 23:50:00,35.6,25.0,30.44,NNW,333,0.0,0.0,65,0.00,SCT,,0.00,WeatherDisplay:10.37,2013-01-16 07:50:00,
2013-01-15 23:51:00,35.6,25.0,30.44,NNW,333,0.0,0.0,65,0.00,SCT,,0.00,WeatherDisplay:10.37,2013-01-16 07:51:00,
2013-01-15 23:52:00,35.5,24.9,30.44,NNW,333,0.0,0.0,65,0.00,SCT,,0.00,WeatherDisplay:10.37,2013-01-16 07:52:00,
2013-01-15 23:55:00,35.5,24.9,30.44,NNW,333,0.0,0.0,65,0.00,SCT,,0.00,WeatherDisplay:10.37,2013-01-16 07:55:00,
2013-01-15 23:56:00,35.5,25.3,30.44,NNW,333,0.0,0.0,66,0.00,SCT,,0.00,WeatherDisplay:10.37,2013-01-16 07:56:00,
2013-01-15 23:57:00,35.5,24.9,30.44,NNW,333,0.0,0.0,65,0.00,SCT,,0.00,WeatherDisplay:10.37,2013-01-16 07:57:00,